This demonstration page uses our WeatherBlox Daily Observations layout. Learn more.

41.55636, -103.73856

Hourly Observations for August 14, 2019

Temp ( °F °C ) Dew Point ( °F °C ) Humidity (%) Winds ( mph kmh ) Pressure ( in mb ) Visibility ( mi km ) Precip ( " mm )
12:58 am 00:58 Clear 73 22.7 54 12.2 52 52 ENE 8 13 30.09 1019 10 16.0934 0 0
1:58 am 01:58 Clear 67 19.5 55 12.6 65 65 ENE 8 13 30.12 1020 10 16.0934 0 0
2:58 am 02:58 Clear 65 18.3 56 13.6 74 74 SE 10 17 30.15 1021 10 16.0934 0 0
3:58 am 03:58 Clear 65 18.1 57 13.9 77 77 SSE 13 20 30.18 1022 10 16.0934 0 0
4:58 am 04:58 Clear 63 17.4 56 13.6 79 79 SSE 14 22 30.18 1022 10 16.0934 0 0
5:58 am 05:58 Clear 62 16.4 55 13 80 80 SSE 15 24 30.19 1022 10 16.0934 0 0
6:58 am 06:58 Clear 60 15.3 56 13.3 88 88 S 13 20 30.19 1022 10 16.0934 0 0
7:58 am 07:58 Clear 59 14.8 56 13.1 90 90 WSW 6 9 30.18 1022 10 16.0934 0 0
8:58 am 08:58 Mostly Cloudy 59 15.2 55 13 87 87 SSW 9 15 30.15 1021 10 16.0934 0 0
9:58 am 09:58 Mostly Clear 60 15.7 53 11.9 78 78 SSW 14 22 30.13 1020 10 16.0934 0 0
10:58 am 10:58 Clear 59 15.2 51 10.7 75 75 SE 8 13 30.13 1020 10 16.0934 0 0
1:58 pm 13:58 Mostly Cloudy 64 17.5 52 11.2 67 67 S 16 26 30.14 1021 10 16.0934 0 0
2:58 pm 14:58 Mostly Sunny 65 18.3 53 11.6 65 65 S 16 26 30.15 1021 10 16.0934 0 0
3:58 pm 15:58 Mostly Sunny 71 21.7 55 12.5 56 56 S 16 26 30.11 1020 10 16.0934 0 0
4:58 pm 16:58 Mostly Sunny 75 23.8 58 14.4 56 56 S 14 22 30.1 1019 10 16.0934 0 0
5:58 pm 17:58 Mostly Cloudy 77 24.9 57 13.9 51 51 SSW 5 7 30.08 1019 10 16.0934 0 0
6:58 pm 18:58 Sunny 79 25.9 54 12.4 43 43 Calm 30.06 1018 10 16.0934 0 0
7:58 pm 19:58 Sunny 82 27.6 58 14.5 45 45 ENE 9 15 30.04 1017 10 16.0934 0 0
9:58 pm 21:58 Sunny 77 25 60 15.5 56 56 E 24 39 30.02 1017 10 16.0934 0 0
10:58 pm 22:58 Sunny 75 24.1 60 15.4 58 58 E 22 35 30.03 1017 10 16.0934 0 0
11:58 pm 23:58 Sunny 75 23.7 60 15.5 60 60 ESE 20 31 29.89 1012 10 16.0934 0 0

Powered by AerisWeather